User: anonymous   Login
Location: Bathurst
(33.4193°S, 149.5775°E)
Time: 04:21:15
(UTC+10:00)
Language:

LO-87 - Orbit

View from above orbital plane
View from above orbital plane
View from above satellite
View from above satellite

Ground track
Ground track

The orbit data is extracted from the following two-line orbital elements,

1 41557U 16033B   21106.23148733  .00002059  00000-0  75171-4 0  9997
2 41557  97.3913 200.5377 0014716  95.3558 316.7415 15.29180609272025
Epoch (UTC): 16 April 2021 05:33:20
Eccentricity: 0.0014716
inclination: 97.3913°
perigee height: 468 km
apogee height: 488 km
right ascension of ascending node: 200.5377°
argument of perigee: 95.3558°
revolutions per day: 15.29180609
mean anomaly at epoch: 316.7415°
orbit number at epoch: 27202

The dashed part of the orbit path shows where the satellite is in the earth's shadow,  

DLR